Weather Roundup
Issued by NWS Springfield, MO

Home | Current Version | Previous Version | Text Only | Print | Product List | Glossary On
Versions: 1 2 3 4 5 6 7 8 9 10 11 12 13 14 15 16 17 18 19 20 21 22 23 24 25 26 27 28 29 30 31 32 33 34 35 36 37 38 39 40 41 42 43 44 45 46 47 48 49 50
000
NZUS99 KSGF 292307
HRRSGF

HOURLY WEATHER
NATIONAL WEATHER SERVICE SPRINGFIELD MO
600 PM CDT WED MAR 29 2017

......SGF CWA......

CITY           SKY/WX    TMP DP  RH WIND       PRES   REMARKS
SPRINGFIELD    CLOUDY    71  57  61 S12       29.67F
JOPLIN         PTSUNNY   72  55  55 S16       29.63F
WEST PLAINS    CLOUDY    73  61  65 SE15G24   29.75F
ROLLA          CLOUDY    68  58  70 SE13      29.73F
OSAGE BEACH    LGT RAIN  69  61  75 SE10      29.73R
BRANSON        CLOUDY    72  59  64 S9        29.71F

......SURROUNDING SGF CWA......

CITY           SKY/WX    TMP DP  RH WIND       PRES   REMARKS
CHANUTE        LGT RAIN  64  52  64 S14G23    29.62F
PARSONS        CLOUDY    64  54  69 S10       29.64F
COFFEYVILLE    MOSUNNY   65  54  67 SW14      29.63F
EMPORIA        MOSUNNY   64  54  69 S15       29.58F
GROVE OK       SUNNY     75  55  50 S16       29.64F
ROGERS AR      MOSUNNY   71  57  61 S20G28    29.68F
SILOAM SPRINGS MOSUNNY   72  54  53 S24G31    29.66S
HARRISON AR    CLOUDY    72  57  59 S16G23    29.72F
NEAR YELLVILLE CLOUDY    75  57  53 SE6       29.69S

......KANSAS AND MISSOURI......

CITY           SKY/WX    TMP DP  RH WIND       PRES   REMARKS
KANSAS CTY INT TSTM      54  53  97 NE10G30   29.70R
DOWNTOWN KC    TSTM      57  54  89 W8G18     29.68R VSB 1/2
COLUMBIA       LGT RAIN  62  57  83 E10       29.74F
SEDALIA        CLOUDY    64  57  78 E13       29.69F
ST JOSEPH      TSTM      52  51  97 E13G22    29.69F FOG
ST LOUIS       CLOUDY    66  54  65 E14       29.84R
SPIRIT OF STL  CLOUDY    66  57  72 E9        29.81S
KIRKSVILLE     LGT RAIN  51  50  96 E16       29.82F FOG
WICHITA        CLOUDY    55  49  80 S16       29.57F
TOPEKA         CLOUDY    59  56  89 NE14      29.62F
OLATHE         MOSUNNY   60  58  92 N6        29.64R

......TENNESSEE......

CITY           SKY/WX    TMP DP  RH WIND       PRES   REMARKS
MEMPHIS        CLOUDY    79  56  45 S17       29.81S
NASHVILLE      MOSUNNY   79  58  48 SE9       29.90F

......ARKANSAS.......

CITY           SKY/WX    TMP DP  RH WIND       PRES   REMARKS
FAYETTEVILLE   MOSUNNY   71  57  61 S21G29    29.67F
FT SMITH       MOSUNNY   76  56  49 VRB6      29.66F
LITTLE ROCK    PTSUNNY   78  60  53 S16       29.73F

......OKLAHOMA.......

CITY           SKY/WX    TMP DP  RH WIND       PRES   REMARKS
TULSA          MOSUNNY   65  52  62 SW15G26   29.64S
PONCA CITY     CLOUDY    56  46  69 SW20G30   29.65R
MCALESTER      PTSUNNY   76  53  44 W14G26    29.67R
OKLAHOMA CITY  PTSUNNY   56  42  59 W20       29.75R

......IOWA............

CITY           SKY/WX    TMP DP  RH WIND       PRES   REMARKS
DES MOINES     LGT RAIN  45  43  93 E13G24    29.89S FOG
QUAD CITIES    LGT RAIN  46  41  82 NE18      29.96F

......ILLINOIS........

CITY           SKY/WX    TMP DP  RH WIND       PRES   REMARKS
QUINCY         CLOUDY    53  49  86 E17G23    29.86R
CHICAGO        CLOUDY    47  34  60 NE18      30.06F




USA.gov is the U.S. government's official web portal to all federal, state and local government web resources and services.